Home > Weather > Valdivia > Past weeks

Flag for Chile Past Weather in Valdivia, Chile — Yesterday and Last 2 Weeks

Now
41 °F

Partly sunny.


Feels Like: 39 °F
Forecast: 37 / 54 °F
Wind: 3 mph from Northwest

Location: Puerto Montt Airport

Current Time: Jun 28, 2016 at 2:54:31 PM

Latest Report: Jun 28, 2016 at 2:00 PM


Visibility: N/A

Pressure: 29.95 "Hg

Humidity: 93%

Dew Point: 39 °F

Location of ValdiviaLocation

Past Weather in Valdivia — Graph

°F

Valdivia Temperature Yesterday

Maximum temperature yesterday: 46 °F (at 3:00 PM)
Minimum temperature yesterday: 41 °F (at 1:00 AM)
Average temperature yesterday: 43 °F

High & Low Weather Summary for the Past Weeks

 TemperatureHumidityPressure
High57 °F (Jun 17, 3:00 PM)100% (Jun 13, 10:00 PM)30.45 "Hg (Jun 13, 10:00 PM)
Low30 °F (Jun 19, 7:00 AM)59% (Jun 19, 4:00 PM)29.95 "Hg (Jun 22, 3:00 PM)
Average44 °F92%30.23 "Hg
* Reported Jun 13 1:00 PM — Jun 28 1:00 PM, Valdivia, Weather by CustomWeather, © 2016

Note: Actual official high and low records may vary slightly from our data, if they occured in-between our weather recording intervals... More about our weather records

Advertising

Valdivia Weather History for the Previous 24 Hours

Scroll right to see more
 ConditionsComfort  
Time TempWeatherWind HumidityBarometerVisibility
1:00 PM
Tue, Jun 28
39 °FFog.5 mph100%29.95 "Hg4 mi
12:00 PM39 °FFog.5 mph100%29.98 "Hg1 mi
11:00 AM39 °FFog.6 mph93%29.98 "Hg1 mi
10:00 AM39 °FFog.6 mph93%29.98 "Hg0 mi
9:00 AM39 °FFog.6 mph100%29.98 "Hg0 mi
8:00 AM39 °FFog.3 mph93%30.01 "Hg0 mi
7:00 AM37 °FFog.1 mph93%30.01 "Hg1 mi
6:00 AM36 °FFog.5 mph100%30.01 "Hg0 mi
5:00 AM36 °FFog.6 mph100%30.04 "Hg1 mi
4:00 AM39 °FFog.8 mph93%30.04 "Hg0 mi
3:00 AM41 °FFog.7 mph93%30.04 "Hg0 mi
2:00 AM41 °FFog.3 mph93%30.07 "Hg1 mi
1:00 AM41 °FFog.2 mph100%30.09 "Hg1 mi
12:00 AM43 °FFog.3 mph93%30.07 "Hg1 mi
11:00 PM
Mon, Jun 27
41 °FFog.5 mph100%30.09 "Hg1 mi
10:00 PM41 °FFog.5 mph100%30.12 "Hg1 mi
9:00 PM43 °FFog.5 mph93%30.09 "Hg0 mi
8:00 PM43 °FFog.1 mph100%30.09 "Hg1 mi
7:00 PM45 °FFog.5 mph93%30.09 "Hg1 mi
6:00 PM45 °FFog.1 mph93%30.12 "Hg1 mi
5:00 PM45 °FFog.2 mph100%30.12 "Hg4 mi
4:00 PM45 °FFog.3 mph100%30.15 "Hg5 mi
3:00 PM46 °FFog.No wind93%30.15 "Hg5 mi
2:00 PM45 °FLow clouds.2 mph100%30.15 "HgN/A
Weather by CustomWeather, © 2016

See weather overviewHow to use our weather pages